Time,TemperatureF,DewpointF,PressureIn,WindDirection,WindDirectionDegrees,WindSpeedMPH,WindSpeedGustMPH,Humidity,HourlyPrecipIn,Conditions,Clouds,dailyrainin,SoftwareType,DateUTC
2015-09-03 00:03:00,80.0,68.0,29.92,SSE,162,2.0,3.0,68,-99.99,,,-99.99,,2015-09-03 05:03:00,
2015-09-03 00:13:00,80.0,68.0,29.92,SSE,162,2.0,3.0,68,-99.99,,,-99.99,,2015-09-03 05:13:00,
2015-09-03 00:23:00,80.0,68.0,29.92,SSE,162,2.0,3.0,68,-99.99,,,-99.99,,2015-09-03 05:23:00,
2015-09-03 00:33:00,79.0,68.0,29.92,SSE,155,2.0,4.0,70,-99.99,,,-99.99,,2015-09-03 05:33:00,
2015-09-03 00:43:00,79.0,69.0,29.92,South,173,2.0,3.0,71,-99.99,,,-99.99,,2015-09-03 05:43:00,
2015-09-03 00:53:00,79.0,69.0,29.92,South,173,2.0,3.0,71,-99.99,,,-99.99,,2015-09-03 05:53:00,
2015-09-03 01:12:00,78.0,69.0,29.92,South,176,1.0,3.0,74,-99.99,,,-99.99,,2015-09-03 06:12:00,
2015-09-03 01:23:00,78.0,69.0,29.92,South,176,1.0,3.0,74,-99.99,,,-99.99,,2015-09-03 06:23:00,
2015-09-03 01:33:00,78.0,69.0,29.92,South,176,1.0,3.0,74,-99.99,,,-99.99,,2015-09-03 06:33:00,
2015-09-03 01:43:00,77.0,69.0,29.91,South,176,1.0,3.0,76,-99.99,,,-99.99,,2015-09-03 06:43:00,
2015-09-03 01:53:00,77.0,69.0,29.91,South,177,1.0,3.0,76,-99.99,,,-99.99,,2015-09-03 06:53:00,
2015-09-03 02:03:00,76.0,68.0,29.91,South,176,1.0,2.0,77,-99.99,,,-99.99,,2015-09-03 07:03:00,
2015-09-03 02:12:00,76.0,68.0,29.91,South,176,1.0,2.0,77,-99.99,,,-99.99,,2015-09-03 07:12:00,
2015-09-03 02:33:00,76.0,69.0,29.91,South,176,1.0,2.0,80,-99.99,,,-99.99,,2015-09-03 07:33:00,
2015-09-03 02:43:00,76.0,69.0,29.91,South,176,1.0,2.0,80,-99.99,,,-99.99,,2015-09-03 07:43:00,
2015-09-03 03:03:00,75.0,69.0,29.91,South,176,1.0,3.0,81,-99.99,,,-99.99,,2015-09-03 08:03:00,
2015-09-03 03:12:00,75.0,69.0,29.91,North,0,0.0,2.0,82,-99.99,,,-99.99,,2015-09-03 08:12:00,
2015-09-03 03:33:00,74.0,69.0,29.91,North,0,0.0,0.0,84,-99.99,,,-99.99,,2015-09-03 08:33:00,
2015-09-03 03:43:00,74.0,69.0,29.91,North,0,0.0,0.0,84,-99.99,,,-99.99,,2015-09-03 08:43:00,
2015-09-03 04:03:00,73.0,68.0,29.91,North,0,0.0,0.0,85,-99.99,,,-99.99,,2015-09-03 09:03:00,
2015-09-03 04:12:00,73.0,69.0,29.91,North,0,0.0,0.0,86,-99.99,,,-99.99,,2015-09-03 09:12:00,
2015-09-03 04:23:00,73.0,69.0,29.91,North,0,0.0,0.0,86,-99.99,,,-99.99,,2015-09-03 09:23:00,
2015-09-03 04:33:00,73.0,69.0,29.91,North,0,0.0,0.0,86,-99.99,,,-99.99,,2015-09-03 09:33:00,
2015-09-03 04:43:00,73.0,69.0,29.91,North,0,0.0,0.0,87,-99.99,,,-99.99,,2015-09-03 09:43:00,
2015-09-03 05:03:00,73.0,69.0,29.91,North,0,0.0,0.0,88,-99.99,,,-99.99,,2015-09-03 10:03:00,
2015-09-03 05:12:00,73.0,69.0,29.91,North,0,0.0,1.0,87,-99.99,,,-99.99,,2015-09-03 10:12:00,
2015-09-03 05:33:00,73.0,69.0,29.91,North,0,0.0,1.0,88,-99.99,,,-99.99,,2015-09-03 10:33:00,
2015-09-03 05:43:00,73.0,69.0,29.92,North,0,0.0,1.0,88,-99.99,,,-99.99,,2015-09-03 10:43:00,
2015-09-03 05:53:00,73.0,70.0,29.92,North,0,0.0,1.0,89,-99.99,,,-99.99,,2015-09-03 10:53:00,
2015-09-03 06:03:00,73.0,70.0,29.92,North,0,0.0,1.0,89,-99.99,,,-99.99,,2015-09-03 11:03:00,
2015-09-03 06:13:00,73.0,70.0,29.92,North,0,0.0,1.0,89,-99.99,,,-99.99,,2015-09-03 11:13:00,
2015-09-03 06:23:00,72.0,69.0,29.92,North,0,0.0,1.0,89,-99.99,,,-99.99,,2015-09-03 11:23:00,
2015-09-03 06:33:00,72.0,69.0,29.92,North,0,0.0,0.0,89,-99.99,,,-99.99,,2015-09-03 11:33:00,
2015-09-03 06:43:00,72.0,69.0,29.92,North,0,0.0,0.0,90,-99.99,,,-99.99,,2015-09-03 11:43:00,
2015-09-03 06:53:00,72.0,69.0,29.92,North,0,0.0,0.0,90,-99.99,,,-99.99,,2015-09-03 11:53:00,
2015-09-03 07:03:00,72.0,69.0,29.92,North,0,0.0,0.0,90,-99.99,,,-99.99,,2015-09-03 12:03:00,
2015-09-03 07:13:00,72.0,69.0,29.93,North,0,0.0,0.0,90,-99.99,,,-99.99,,2015-09-03 12:13:00,
2015-09-03 07:23:00,72.0,69.0,29.93,North,0,0.0,0.0,91,-99.99,,,-99.99,,2015-09-03 12:23:00,
2015-09-03 07:33:00,72.0,69.0,29.93,North,0,0.0,0.0,91,-99.99,,,-99.99,,2015-09-03 12:33:00,
2015-09-03 08:03:00,72.0,69.0,29.94,North,0,0.0,2.0,91,-99.99,,,-99.99,,2015-09-03 13:03:00,
2015-09-03 08:13:00,73.0,70.0,29.94,North,0,0.0,1.0,91,-99.99,,,-99.99,,2015-09-03 13:13:00,
2015-09-03 08:23:00,73.0,70.0,29.94,North,0,0.0,1.0,91,-99.99,,,-99.99,,2015-09-03 13:23:00,
2015-09-03 08:33:00,73.0,70.0,29.94,North,0,0.0,1.0,91,-99.99,,,-99.99,,2015-09-03 13:33:00,
2015-09-03 08:43:00,74.0,71.0,29.94,South,176,1.0,4.0,89,-99.99,,,-99.99,,2015-09-03 13:43:00,
2015-09-03 09:03:00,75.0,72.0,29.95,SSE,164,1.0,4.0,89,-99.99,,,-99.99,,2015-09-03 14:03:00,
2015-09-03 09:12:00,76.0,72.0,29.95,SE,144,1.0,4.0,86,-99.99,,,-99.99,,2015-09-03 14:12:00,
2015-09-03 09:33:00,78.0,73.0,29.95,SE,144,1.0,3.0,84,-99.99,,,-99.99,,2015-09-03 14:33:00,
2015-09-03 09:43:00,78.0,73.0,29.95,SE,144,1.0,3.0,84,-99.99,,,-99.99,,2015-09-03 14:43:00,
2015-09-03 10:12:00,80.0,72.0,29.95,SSE,161,1.0,5.0,77,-99.99,,,-99.99,,2015-09-03 15:12:00,
2015-09-03 10:33:00,82.0,72.0,29.94,South,175,1.0,3.0,73,-99.99,,,-99.99,,2015-09-03 15:33:00,
2015-09-03 10:43:00,84.0,73.0,29.95,SE,127,1.0,4.0,69,-99.99,,,-99.99,,2015-09-03 15:43:00,
2015-09-03 11:03:00,83.0,72.0,29.95,North,0,0.0,2.0,70,-99.99,,,-99.99,,2015-09-03 16:03:00,
2015-09-03 11:12:00,83.0,73.0,29.95,North,0,0.0,2.0,71,-99.99,,,-99.99,,2015-09-03 16:12:00,
2015-09-03 11:33:00,85.0,73.0,29.95,SE,136,1.0,5.0,67,-99.99,,,-99.99,,2015-09-03 16:33:00,
2015-09-03 11:46:00,86.0,72.0,29.95,SE,145,2.0,5.0,63,-99.99,,,-99.99,,2015-09-03 16:46:00,
2015-09-03 12:03:00,88.0,73.0,29.95,SE,136,2.0,4.0,61,-99.99,,,-99.99,,2015-09-03 17:03:00,
2015-09-03 12:13:00,86.0,71.0,29.95,SSE,160,1.0,5.0,62,-99.99,,,-99.99,,2015-09-03 17:13:00,
2015-09-03 12:33:00,87.0,70.0,29.94,ESE,114,2.0,8.0,58,-99.99,,,-99.99,,2015-09-03 17:33:00,
2015-09-03 12:44:00,88.0,71.0,29.93,ESE,114,2.0,7.0,57,-99.99,,,-99.99,,2015-09-03 17:44:00,
2015-09-03 12:54:00,88.0,70.0,29.93,ESE,110,2.0,7.0,56,-99.99,,,-99.99,,2015-09-03 17:54:00,
2015-09-03 13:05:00,88.0,71.0,29.92,SSE,160,2.0,5.0,57,-99.99,,,-99.99,,2015-09-03 18:05:00,
2015-09-03 13:13:00,89.0,72.0,29.93,SE,137,2.0,5.0,57,-99.99,,,-99.99,,2015-09-03 18:13:00,
2015-09-03 13:34:00,90.0,70.0,29.91,SE,146,3.0,8.0,52,-99.99,,,-99.99,,2015-09-03 18:34:00,
2015-09-03 13:44:00,90.0,69.0,29.90,SE,136,3.0,7.0,50,-99.99,,,-99.99,,2015-09-03 18:44:00,
2015-09-03 14:03:00,90.0,69.0,29.90,SE,145,3.0,12.0,51,-99.99,,,-99.99,,2015-09-03 19:03:00,
2015-09-03 14:14:00,90.0,69.0,29.90,ESE,113,2.0,8.0,51,-99.99,,,-99.99,,2015-09-03 19:14:00,
2015-09-03 14:24:00,90.0,69.0,29.90,ESE,113,2.0,8.0,51,-99.99,,,-99.99,,2015-09-03 19:24:00,
2015-09-03 14:34:00,91.0,69.0,29.88,SE,131,4.0,8.0,49,-99.99,,,-99.99,,2015-09-03 19:34:00,
2015-09-03 14:44:00,92.0,70.0,29.88,SSE,148,3.0,7.0,49,-99.99,,,-99.99,,2015-09-03 19:44:00,
2015-09-03 15:03:00,91.0,70.0,29.88,SSE,155,3.0,6.0,50,-99.99,,,-99.99,,2015-09-03 20:03:00,
2015-09-03 15:13:00,92.0,69.0,29.87,SE,134,4.0,8.0,48,-99.99,,,-99.99,,2015-09-03 20:13:00,
2015-09-03 15:23:00,92.0,69.0,29.87,SE,134,4.0,8.0,48,-99.99,,,-99.99,,2015-09-03 20:23:00,
2015-09-03 15:33:00,93.0,70.0,29.86,ESE,123,2.0,6.0,47,-99.99,,,-99.99,,2015-09-03 20:33:00,
2015-09-03 15:43:00,93.0,68.0,29.85,SE,131,2.0,5.0,45,-99.99,,,-99.99,,2015-09-03 20:43:00,
2015-09-03 16:03:00,93.0,69.0,29.85,SE,124,2.0,7.0,46,-99.99,,,-99.99,,2015-09-03 21:03:00,
2015-09-03 16:13:00,93.0,68.0,29.84,SSE,159,3.0,7.0,45,-99.99,,,-99.99,,2015-09-03 21:13:00,
2015-09-03 16:23:00,94.0,69.0,29.84,SSE,153,3.0,7.0,45,-99.99,,,-99.99,,2015-09-03 21:23:00,
2015-09-03 16:33:00,93.0,68.0,29.83,SE,125,3.0,7.0,45,-99.99,,,-99.99,,2015-09-03 21:33:00,
2015-09-03 16:43:00,93.0,68.0,29.83,SE,124,2.0,7.0,45,-99.99,,,-99.99,,2015-09-03 21:43:00,
2015-09-03 16:53:00,93.0,68.0,29.83,SE,124,2.0,7.0,45,-99.99,,,-99.99,,2015-09-03 21:53:00,
2015-09-03 17:13:00,93.0,68.0,29.82,SE,132,3.0,-999.0,45,-99.99,,,-99.99,,2015-09-03 22:13:00,
2015-09-03 17:23:00,93.0,68.0,29.81,SE,134,3.0,6.0,45,-99.99,,,-99.99,,2015-09-03 22:23:00,
2015-09-03 17:33:00,93.0,68.0,29.81,ESE,116,2.0,5.0,44,-99.99,,,-99.99,,2015-09-03 22:33:00,
2015-09-03 17:44:00,93.0,68.0,29.81,SE,124,2.0,6.0,44,-99.99,,,-99.99,,2015-09-03 22:44:00,
2015-09-03 18:13:00,93.0,68.0,29.80,SE,145,2.0,6.0,45,-99.99,,,-99.99,,2015-09-03 23:13:00,
2015-09-03 18:23:00,93.0,68.0,29.80,SSE,147,2.0,5.0,45,-99.99,,,-99.99,,2015-09-03 23:23:00,
2015-09-03 18:36:00,92.0,68.0,29.80,SE,129,2.0,5.0,46,-99.99,,,-99.99,,2015-09-03 23:36:00,
2015-09-03 18:43:00,92.0,67.0,29.79,SE,130,2.0,5.0,44,-99.99,,,-99.99,,2015-09-03 23:43:00,
2015-09-03 19:03:00,92.0,68.0,29.79,SSE,166,2.0,6.0,46,-99.99,,,-99.99,,2015-09-04 00:03:00,
2015-09-03 19:13:00,92.0,68.0,29.79,SE,141,2.0,5.0,46,-99.99,,,-99.99,,2015-09-04 00:13:00,
2015-09-03 19:33:00,91.0,67.0,29.79,SSE,153,2.0,4.0,45,-99.99,,,-99.99,,2015-09-04 00:33:00,
2015-09-03 19:43:00,90.0,68.0,29.79,North,0,0.0,2.0,49,-99.99,,,-99.99,,2015-09-04 00:43:00,
2015-09-03 19:53:00,89.0,67.0,29.79,North,0,0.0,2.0,49,-99.99,,,-99.99,,2015-09-04 00:53:00,
2015-09-03 20:03:00,89.0,68.0,29.79,SSE,155,1.0,2.0,51,-99.99,,,-99.99,,2015-09-04 01:03:00,
2015-09-03 20:13:00,88.0,68.0,29.79,SSE,155,1.0,3.0,52,-99.99,,,-99.99,,2015-09-04 01:13:00,
2015-09-03 20:33:00,87.0,69.0,29.80,SSE,155,1.0,3.0,55,-99.99,,,-99.99,,2015-09-04 01:33:00,
2015-09-03 20:43:00,87.0,70.0,29.80,North,0,0.0,1.0,57,-99.99,,,-99.99,,2015-09-04 01:43:00,